Location: *
(38.4585°S, 80.4510°E)
Time: 12:27:28
(UTC+00:00)

Daily predictions for brighter satellites

Satellite Brightness Start Highest point End
(mag) Time Altitude Azimuth Time Altitude Azimuth Time Altitude Azimuth
Cosmos 1470 3.0 12:00:33 10° N 12:04:26 50° E 12:08:21 10° SSE
Cosmos 1892 Rocket 3.5 12:02:24 10° S 12:06:49 79° E 12:11:11 10° N
BREEZE-M DEB (TANK) 4.2 12:06:48 10° S 12:07:55 12° SSE 12:09:18 10° SE
FALCON 9 DEB 3.6 12:07:30 10° NNW 12:10:51 49° NE 12:14:17 10° ESE
Lacrosse 4 Rocket 1.4 12:07:19 10° NNW 12:11:25 90° WNW 12:15:40 10° SSE
Cosmos 1455 Rocket 3.1 12:07:32 10° N 12:12:01 89° E 12:16:34 10° S
CZ-4B DEB 4.3 12:06:41 10° SSE 12:12:19 67° ENE 12:17:50 10° N
NOSS 0 Rocket 4.1 12:07:37 10° SSW 12:13:43 52° ESE 12:19:42 10° NE
Cosmos 1626 Rocket 4.2 12:14:09 10° SSE 12:18:13 33° ESE 12:22:14 10° NE
Cosmos 1980 4.1 12:15:43 10° S 12:21:07 41° ESE 12:26:27 10° NE
Envisat 3.6 12:18:12 10° SSE 12:23:00 38° E 12:27:43 10° NNE
USA 215 3.5 12:17:57 10° ENE 12:24:11 49° SE 12:30:29 10° SW
Cosmos 2219 Rocket 2.6 12:19:08 10° SSW 12:24:45 68° WNW 12:30:18 10° N
Cosmos 1777 Rocket 4.4 12:20:34 10° NNW 12:25:50 70° WSW 12:31:08 10° SSE
Cosmos 773 Rocket 4.1 12:20:54 10° SSW 12:26:14 89° WNW 12:31:32 10° NNE
Cosmos 2297 Rocket 2.4 12:21:14 10° N 12:26:45 55° ENE 12:32:20 10° SSE
H-2A R/B 2.6 12:24:15 10° SSE 12:28:06 72° E 12:31:51 10° N
Cosmos 2237 Rocket 2.3 12:31:24 10° SSW 12:36:59 51° ESE 12:42:30 10° NE
H-2A R/B 4.0 12:33:27 10° S 12:37:19 38° WSW 12:41:17 10° NW
Cosmos 1953 2.5 12:34:03 10° N 12:38:01 51° E 12:42:03 10° SSE
Cosmos 1538 Rocket 4.0 12:35:57 10° SSW 12:41:23 80° ESE 12:46:48 10° NNE
Meteor 2-16 Rocket 4.5 12:39:14 10° S 12:45:20 58° E 12:51:20 10° NNE
Cosmos 1908 4.3 12:42:07 10° NE 12:45:22 25° E 12:46:30 22° ESE
Okean O Rocket 1.6 12:43:20 10° SSE 12:47:52 86° ENE 12:52:18 10° NNW
SJ 16-02 1.6 12:44:03 10° N 12:48:15 47° ENE 12:51:37 16° SSE
ARGOS Delta rocket 3.9 12:44:50 10° SSE 12:49:08 45° E 12:53:27 10° N
COSMOS 2428 3.9 12:44:34 10° SW 12:50:02 46° WNW 12:55:26 10° N
Cosmos 44 4.0 12:48:41 10° SW 12:53:21 52° WNW 12:57:43 10° NNE
Cosmos 1553 Rocket 4.0 12:50:17 10° N 12:56:34 73° E 13:03:01 10° S
Radarsat Rocket 4.0 12:56:04 10° SSE 13:01:59 87° WSW 13:08:06 10° NNW
Cosmos 1340 Rocket 3.7 12:59:58 10° NNW 13:03:48 49° WSW 13:07:42 10° S
Cosmos 1745 Rocket 4.1 12:59:44 10° S 13:05:46 52° E 13:11:46 10° NNE
Shenzhou-11 Module 2.2 13:03:34 10° W 13:05:51 43° SSW 13:05:51 43° SSW
CZ-2C R/B 3.1 13:02:29 10° NE 13:07:11 35° ESE 13:11:59 10° S
SL-8 R/B 4.0 13:04:13 10° WSW 13:09:03 66° NW 13:13:09 14° NE
Cosmos 1726 2.7 13:05:39 10° NNW 13:09:15 56° W 13:12:56 10° S
Cosmos 2112 Rocket 4.4 13:04:30 10° S 13:09:30 39° ESE 13:12:28 21° ENE
S3M 3.9 13:03:54 10° N 13:10:08 68° E 13:16:22 10° SSE
Cosmos 2227 Rocket 2.4 13:05:56 10° NNW 13:11:35 73° WSW 13:17:02 11° SSE
CZ-4B R/B 3.8 13:06:29 10° S 13:12:08 62° WSW 13:17:38 10° NNW
SMAP 3.3 13:08:09 10° S 13:12:53 72° WSW 13:17:33 10° NNW
Cosmos 1602 Rocket 3.7 13:08:46 10° S 13:13:12 77° W 13:17:35 10° N
Cosmos 2082 3.6 13:10:15 10° NNW 13:15:53 69° ENE 13:19:28 24° SSE
SL-4 R/B 3.6 13:11:39 10° W 13:16:07 35° SSW 13:18:22 23° SSE
Cosmos 1606 Rocket 3.7 13:14:51 10° NNE 13:19:09 51° E 13:19:47 47° ESE
Okean-O 3.8 13:23:44 28° NE 13:23:44 28° NE 13:26:18 10° NNE
Cosmos 990 Rocket 3.8 13:18:46 10° NNW 13:23:54 79° ENE 13:26:43 28° SSE
SL-16 R/B 2.3 13:23:04 10° SSW 13:28:36 49° ESE 13:29:32 45° E
Cosmos 1680 Rocket 3.4 13:29:28 10° SSW 13:34:50 79° ESE 13:40:08 10° NNE
Cosmos 1898 Rocket 3.5 13:34:32 10° NNW 13:39:44 80° WSW 13:42:05 34° SSE
Cosmos 158 Rocket 3.7 13:34:53 10° SSW 13:40:02 83° ESE 13:42:40 28° NNE
DMSP B5D2-2 3.9 13:36:09 10° NNE 13:41:22 74° ESE 13:46:42 10° S
Lacrosse 5 1.8 13:37:47 10° SW 13:42:57 90° SE 13:43:51 62° NE
IRS-1C Rocket 4.1 13:40:21 24° SSE 13:43:39 84° WSW 13:48:56 10° NNW
Cosmos 1726 Rocket 3.9 13:41:58 10° N 13:45:27 55° N 13:45:27 55° N
MOS 1 Rocket 4.0 13:42:40 10° N 13:48:06 66° W 13:53:29 10° SSW
Cosmos 1709 Rocket 3.9 13:43:22 10° S 13:49:34 65° E 13:55:46 10° NNE
GEOS 3 Rocket 3.6 14:00:15 67° N 14:00:53 78° NW 14:06:05 10° SW
Helios 1A Rocket 4.4 14:05:08 33° SW 14:05:55 35° WSW 14:09:44 10° NW
USA 215 4.0 14:01:05 11° NNE 14:07:09 48° NW 14:13:28 10° SW
Cosmos 2228 4.3 14:06:24 10° NNW 14:10:33 39° WSW 14:10:49 39° WSW
Cosmos 2297 Rocket 4.3 14:06:53 10° WNW 14:11:10 21° SW 14:15:22 10° S
Cosmos 1937 Rocket 4.0 14:06:21 10° NNW 14:11:29 57° WSW 14:11:46 56° SW
SJ 16-02 4.0 14:24:33 10° W 14:27:07 15° WSW 14:28:39 13° SW
NOSS 3-1 (C) 4.3 14:43:54 10° NW 14:51:35 69° NW 14:51:35 69° NW
SL-16 R/B 4.4 15:08:05 10° SW 15:11:33 21° W 15:11:33 21° W
Atlas Centaur 2 4.0 22:17:28 39° NE 22:17:28 39° NE 22:23:04 10° ENE
Cosmos 1980 Rocket 4.3 22:20:16 22° E 22:20:16 22° E 22:23:18 10° SE
USA 267 4.0 22:30:31 10° ESE 22:36:46 46° NE 22:36:46 46° NE
SJ 16-02 3.6 22:59:10 22° ENE 22:59:10 22° ENE 23:00:58 10° NE
Cosmos 1092 Rocket 4.5 22:55:09 10° NNE 23:01:12 56° E 23:07:16 10° SSE
Cosmos 2297 Rocket 4.4 23:10:57 14° N 23:10:57 14° N 23:11:40 10° N
OAO 2 Rocket 4.5 23:07:45 40° ENE 23:07:45 40° ENE 23:11:18 10° E
Cosmos 1241 Rocket 4.4 23:19:21 83° WSW 23:19:23 83° WSW 23:25:58 10° SSE
MOS 1-B 4.3 23:21:41 10° NNE 23:27:31 87° ESE 23:29:02 53° SSW
Envisat 4.1 23:31:07 10° NE 23:35:55 43° ESE 23:40:47 10° S
CZ-4B DEB 4.1 23:31:27 10° N 23:36:58 78° WNW 23:37:54 62° SW
Cosmos 2263 Rocket 3.7 23:36:15 11° S 23:41:10 34° ESE 23:46:18 10° ENE
Okean O Rocket 2.1 23:37:55 10° NNE 23:42:20 61° ESE 23:44:35 28° S
In-Cosmos 22 4.4 23:41:53 10° N 23:47:21 67° E 23:52:46 10° SSE
Cosmos 1627 Rocket 4.3 23:43:22 10° NNW 23:49:34 76° W 23:55:56 10° S
Cosmos 2208 Rocket 4.2 23:44:32 10° N 23:49:42 70° ENE 23:54:55 10° SSE
Cosmos 1814 Rocket 4.4 23:45:34 10° N 23:50:48 66° ENE 23:56:08 10° SSE
Cosmos 2227 Rocket 4.0 23:54:08 16° NNW 23:54:08 16° NNW 23:55:28 10° NNW
ATLAS 5 CENTAUR R/B 3.8 23:45:06 10° N 23:51:52 45° ENE 23:58:20 10° SE
Cosmos 990 Rocket 3.9 23:50:55 52° SW 23:52:07 72° WNW 23:57:22 10° N
Cosmos 1689 Rocket 3.6 23:51:02 10° SSE 23:53:55 37° E 23:56:46 10° N
